• In Netherlands
  • List of Countries
  • For 7 days
  • Water Temperature
  • Satellite Maps
  • Weather Map
  • Weather Widgets
  • user-avatar
    Login

    Hourly Weather Yelsk

    Today, 25 January, Wednesday

    Time Temperature Precipitation Wind Pressure Humidity
    00:00 -3°C° 0.1 mm 4 mps 749 mmHg 97%
    01:00 -3°C° 0.1 mm 4 mps 749 mmHg 97%
    02:00 -3°C° 0.1 mm 4 mps 749 mmHg 96%
    03:00 -3°C° 0.1 mm 4 mps 749 mmHg 96%
    04:00 -3°C° 0.1 mm 4 mps 749 mmHg 96%
    05:00 -2°C° 0.1 mm 4 mps 749 mmHg 96%
    06:00 -3°C° 0.1 mm 4 mps 749 mmHg 96%
    07:00 -5°C° 0.1 mm 5 mps 749 mmHg 95%
    08:00 -6°C° 0.1 mm 5 mps 750 mmHg 94%
    09:00 -7°C° 0.1 mm 5 mps 751 mmHg 93%
    10:00 -8°C° 0.1 mm 5 mps 751 mmHg 92%
    11:00 -10°C° 0.1 mm 5 mps 752 mmHg 90%
    12:00 -10°C° 0.1 mm 5 mps 752 mmHg 90%
    13:00 -10°C° 0.1 mm 5 mps 753 mmHg 90%
    14:00 -10°C° 0.1 mm 5 mps 753 mmHg 90%
    15:00 -9°C° 0 mm 4 mps 754 mmHg 91%
    16:00 -9°C° 0 mm 4 mps 754 mmHg 92%
    17:00 -10°C° 0 mm 4 mps 755 mmHg 93%
    18:00 -10°C° 0 mm 4 mps 755 mmHg 93%
    19:00 -11°C° 0 mm 4 mps 756 mmHg 93%
    20:00 -11°C° 0 mm 4 mps 756 mmHg 93%
    21:00 -11°C° 0 mm 4 mps 757 mmHg 93%
    22:00 -12°C° 0 mm 4 mps 757 mmHg 92%
    23:00 -12°C° 0 mm 4 mps 758 mmHg 92%

    Tomorrow, 26 January, Thursday

    Time Temperature Precipitation Wind Pressure Humidity
    00:00 -12°C° 0 mm 3 mps 758 mmHg 93%
    01:00 -13°C° 0 mm 3 mps 758 mmHg 93%
    02:00 -13°C° 0 mm 3 mps 759 mmHg 94%
    03:00 -13°C° 0 mm 3 mps 759 mmHg 94%
    04:00 -14°C° 0 mm 3 mps 759 mmHg 94%
    05:00 -13°C° 0 mm 2 mps 759 mmHg 95%
    06:00 -13°C° 0 mm 2 mps 759 mmHg 95%
    07:00 -14°C° 0 mm 2 mps 760 mmHg 95%
    08:00 -14°C° 0 mm 2 mps 760 mmHg 95%
    09:00 -14°C° 0 mm 2 mps 760 mmHg 94%
    10:00 -13°C° 0 mm 2 mps 760 mmHg 93%
    11:00 -13°C° 0 mm 2 mps 760 mmHg 92%
    12:00 -12°C° 0 mm 2 mps 760 mmHg 92%
    13:00 -9°C° 0 mm 1 mps 760 mmHg 91%
    14:00 -9°C° 0 mm 1 mps 760 mmHg 90%
    15:00 -9°C° 0 mm 1 mps 760 mmHg 93%
    16:00 -10°C° 0 mm 1 mps 760 mmHg 95%
    17:00 -11°C° 0 mm 1 mps 759 mmHg 98%
    18:00 -11°C° 0 mm 1 mps 759 mmHg 97%
    19:00 -11°C° 0 mm 1 mps 759 mmHg 97%
    20:00 -13°C° 0 mm 2 mps 759 mmHg 97%
    21:00 -13°C° 0 mm 2 mps 759 mmHg 96%
    22:00 -13°C° 0 mm 2 mps 759 mmHg 96%
    23:00 -12°C° 0 mm 2 mps 758 mmHg 95%

    Day after tomorrow, 27 January, Friday

    Time Temperature Precipitation Wind Pressure Humidity
    00:00 -13°C° 0 mm 3 mps 758 mmHg 95%
    01:00 -13°C° 0 mm 3 mps 757 mmHg 95%
    02:00 -12°C° 0 mm 3 mps 757 mmHg 94%
    03:00 -12°C° 0 mm 3 mps 756 mmHg 94%
    04:00 -11°C° 0 mm 4 mps 756 mmHg 94%
    05:00 -11°C° 0 mm 4 mps 756 mmHg 94%
    06:00 -10°C° 0.1 mm 4 mps 755 mmHg 95%
    07:00 -10°C° 0.1 mm 4 mps 755 mmHg 95%
    08:00 -9°C° 0.1 mm 4 mps 754 mmHg 96%
    09:00 -9°C° 0.1 mm 4 mps 754 mmHg 96%
    10:00 -8°C° 0.1 mm 4 mps 754 mmHg 96%
    11:00 -7°C° 0.1 mm 4 mps 754 mmHg 96%
    12:00 -7°C° 0.2 mm 4 mps 754 mmHg 96%
    13:00 -5°C° 0.2 mm 4 mps 753 mmHg 96%
    14:00 -4°C° 0.2 mm 4 mps 753 mmHg 96%
    15:00 -4°C° 0.1 mm 3 mps 753 mmHg 97%
    16:00 -4°C° 0.1 mm 3 mps 753 mmHg 97%
    17:00 -4°C° 0.1 mm 3 mps 753 mmHg 98%
    18:00 -4°C° 0 mm 3 mps 754 mmHg 98%
    19:00 -2°C° 0 mm 2 mps 754 mmHg 98%
    20:00 -2°C° 0 mm 2 mps 754 mmHg 99%
    21:00 -2°C° 0.1 mm 2 mps 754 mmHg 99%
    22:00 -2°C° 0.1 mm 2 mps 754 mmHg 99%
    23:00 -2°C° 0.1 mm 2 mps 754 mmHg 99%

    28 January, Saturday

    Time Temperature Precipitation Wind Pressure Humidity
    00:00 -2°C° 0 mm 2 mps 754 mmHg 99%
    01:00 -2°C° 0 mm 2 mps 754 mmHg 99%
    02:00 0°C° 0 mm 1 mps 755 mmHg 99%
    03:00 0°C° 0 mm 1 mps 755 mmHg 99%
    04:00 0°C° 0 mm 1 mps 755 mmHg 99%
    05:00 0°C° 0 mm 1 mps 755 mmHg 99%
    06:00 0°C° 0 mm 1 mps 755 mmHg 99%
    07:00 0°C° 0 mm 1 mps 755 mmHg 99%
    08:00 0°C° 0 mm 1 mps 755 mmHg 99%
    09:00 0°C° 0 mm 1 mps 755 mmHg 99%
    10:00 +1°C° 0 mm 1 mps 755 mmHg 99%
    11:00 0°C° 0 mm 0 mps 756 mmHg 99%
    12:00 0°C° 0 mm 0 mps 755 mmHg 99%
    13:00 +1°C° 0 mm 1 mps 755 mmHg 99%
    14:00 +2°C° 0 mm 1 mps 755 mmHg 99%
    15:00 +1°C° 0 mm 1 mps 755 mmHg 99%
    16:00 +1°C° 0 mm 1 mps 755 mmHg 99%
    17:00 +1°C° 0 mm 1 mps 755 mmHg 99%
    18:00 +1°C° 0 mm 1 mps 756 mmHg 99%
    19:00 0°C° 0 mm 1 mps 756 mmHg 99%
    20:00 0°C° 0 mm 1 mps 756 mmHg 99%
    21:00 0°C° 0 mm 1 mps 756 mmHg 99%
    22:00 0°C° 0 mm 1 mps 756 mmHg 99%
    23:00 0°C° 0 mm 1 mps 756 mmHg 98%

    29 January, Sunday

    Time Temperature Precipitation Wind Pressure Humidity
    00:00 0°C° 0 mm 1 mps 756 mmHg 98%
    01:00 0°C° 0 mm 1 mps 756 mmHg 98%
    02:00 0°C° 0 mm 1 mps 757 mmHg 98%
    03:00 0°C° 0 mm 1 mps 757 mmHg 98%
    04:00 0°C° 0 mm 1 mps 757 mmHg 98%
    05:00 0°C° 0 mm 1 mps 757 mmHg 98%
    06:00 0°C° 0 mm 1 mps 757 mmHg 98%
    07:00 0°C° 0 mm 1 mps 757 mmHg 98%
    08:00 0°C° 0 mm 1 mps 757 mmHg 98%
    09:00 0°C° 0 mm 1 mps 757 mmHg 97%
    10:00 -1°C° 0 mm 2 mps 757 mmHg 97%
    11:00 -1°C° 0 mm 2 mps 757 mmHg 96%
    12:00 -1°C° 0 mm 2 mps 757 mmHg 97%
    13:00 -1°C° 0 mm 2 mps 756 mmHg 97%
    14:00 -1°C° 0 mm 2 mps 756 mmHg 97%
    15:00 -1°C° 0 mm 2 mps 756 mmHg 97%
    16:00 -1°C° 0 mm 2 mps 756 mmHg 97%
    17:00 -2°C° 0 mm 2 mps 755 mmHg 98%
    18:00 -2°C° 0 mm 2 mps 755 mmHg 97%
    19:00 -2°C° 0 mm 2 mps 755 mmHg 97%
    20:00 -4°C° 0 mm 3 mps 755 mmHg 97%
    21:00 -4°C° 0 mm 3 mps 755 mmHg 96%
    22:00 -4°C° 0 mm 3 mps 754 mmHg 96%
    23:00 -5°C° 0 mm 3 mps 754 mmHg 96%

    30 January, Monday

    Time Temperature Precipitation Wind Pressure Humidity
    00:00 -5°C° 0 mm 3 mps 754 mmHg 95%
    01:00 -5°C° 0 mm 4 mps 754 mmHg 95%
    02:00 -5°C° 0 mm 4 mps 753 mmHg 94%
    03:00 -5°C° 0 mm 4 mps 753 mmHg 94%
    04:00 -5°C° 0 mm 4 mps 753 mmHg 94%
    05:00 -5°C° 0 mm 4 mps 752 mmHg 94%
    06:00 -5°C° 0.1 mm 4 mps 752 mmHg 94%
    07:00 -6°C° 0.1 mm 5 mps 752 mmHg 94%
    08:00 -6°C° 0.1 mm 5 mps 752 mmHg 94%
    09:00 -6°C° 0.1 mm 5 mps 752 mmHg 93%
    10:00 -6°C° 0.1 mm 5 mps 751 mmHg 93%
    11:00 -6°C° 0.1 mm 6 mps 751 mmHg 92%
    12:00 -6°C° 0.1 mm 6 mps 750 mmHg 92%
    13:00 -6°C° 0.1 mm 5 mps 750 mmHg 92%
    14:00 -5°C° 0.1 mm 5 mps 749 mmHg 92%
    15:00 -5°C° 0.1 mm 5 mps 749 mmHg 93%
    16:00 -6°C° 0.1 mm 5 mps 749 mmHg 94%
    17:00 -6°C° 0.1 mm 5 mps 748 mmHg 94%
    18:00 -6°C° 0.5 mm 5 mps 748 mmHg 95%
    19:00 -5°C° 0.5 mm 5 mps 748 mmHg 96%
    20:00 -5°C° 0.5 mm 5 mps 747 mmHg 96%
    21:00 -4°C° 0.7 mm 4 mps 747 mmHg 96%
    22:00 -4°C° 0.7 mm 4 mps 747 mmHg 97%
    23:00 -4°C° 0.7 mm 4 mps 747 mmHg 97%
    Show more